Tracking 30743 objects as of 22-Jun-2025
HD Live streaming from Space Station
objects crossing your sky now

STARLINK-31612

Track STARLINK-31612 now!
10-day predictions
STARLINK-31612 is classified as:


NORAD ID: 59337
Int'l Code: 2024-057T
Perigee: 489.5 km
Apogee: 490.8 km
Inclination: 43.0 °
Period: 94.3 minutes
Semi major axis: 6861 km
RCS: Unknown
Launch date: March 25, 2024
Source: United States (US)
Launch site: AIR FORCE EASTERN TEST RANGE (AFETR)
Your satellite tracking list
Your tracking list is empty




NASA's NSSDC Master Catalog

Two Line Element Set (TLE):
1 59337U 24057T   25173.48286417 -.00001510  00000-0 -45366-4 0  9990
2 59337  42.9994 216.6023 0000932 264.9907  95.0839 15.27580547 70046
Source of the keplerian elements: AFSPC